Time,TemperatureF,DewpointF,PressureIn,WindDirection,WindDirectionDegrees,WindSpeedMPH,WindSpeedGustMPH,Humidity,HourlyPrecipIn,Conditions,Clouds,dailyrainin,SoftwareType,DateUTC
2013-03-15 00:00:00,28.4,13.5,29.88,West,270,3.6,6.9,53,0.00,,,0.00,WUHU216HW,2013-03-15 04:00:00,
2013-03-15 00:05:00,28.4,13.1,29.88,WNW,293,3.8,5.4,52,0.00,,,0.00,WUHU216HW,2013-03-15 04:05:00,
2013-03-15 00:10:00,28.3,12.9,29.89,SSE,158,1.1,5.4,52,0.00,,,0.00,WUHU216HW,2013-03-15 04:10:00,
2013-03-15 00:15:00,28.3,12.9,29.88,West,270,2.5,4.9,52,0.00,,,0.00,WUHU216HW,2013-03-15 04:15:00,
2013-03-15 00:20:00,28.3,12.5,29.88,WNW,293,1.3,4.9,51,0.00,,,0.00,WUHU216HW,2013-03-15 04:20:00,
2013-03-15 00:25:00,28.1,12.7,29.88,WNW,293,4.5,4.5,52,0.00,,,0.00,WUHU216HW,2013-03-15 04:25:00,
2013-03-15 00:30:00,28.1,12.3,29.88,West,270,4.3,5.1,51,0.00,,,0.00,WUHU216HW,2013-03-15 04:30:00,
2013-03-15 00:35:00,28.3,12.1,29.88,WNW,293,3.6,5.6,50,0.00,,,0.00,WUHU216HW,2013-03-15 04:35:00,
2013-03-15 00:40:00,28.3,12.1,29.88,WNW,293,3.4,5.6,50,0.00,,,0.00,WUHU216HW,2013-03-15 04:40:00,
2013-03-15 00:45:00,28.3,12.1,29.89,WNW,293,1.8,6.0,50,0.00,,,0.00,WUHU216HW,2013-03-15 04:45:00,
2013-03-15 00:50:00,28.3,12.1,29.89,West,270,11.9,11.9,50,0.00,,,0.00,WUHU216HW,2013-03-15 04:50:00,
2013-03-15 00:55:00,28.3,12.1,29.88,West,270,4.3,11.9,50,0.00,,,0.00,WUHU216HW,2013-03-15 04:55:00,
2013-03-15 01:00:00,28.1,11.9,29.89,WNW,293,2.7,4.7,50,0.00,,,0.00,WUHU216HW,2013-03-15 05:00:00,
2013-03-15 01:05:00,28.1,11.9,29.89,NNW,338,3.1,6.7,50,0.00,,,0.00,WUHU216HW,2013-03-15 05:05:00,
2013-03-15 01:10:00,28.1,11.9,29.88,West,270,5.1,6.7,50,0.00,,,0.00,WUHU216HW,2013-03-15 05:10:00,
2013-03-15 01:15:00,28.1,11.9,29.88,West,270,1.6,5.1,50,0.00,,,0.00,WUHU216HW,2013-03-15 05:15:00,
2013-03-15 01:20:00,27.9,12.2,29.89,West,270,2.2,3.8,51,0.00,,,0.00,WUHU216HW,2013-03-15 05:20:00,
2013-03-15 01:25:00,27.9,12.5,29.89,WNW,293,2.0,3.4,52,0.00,,,0.00,WUHU216HW,2013-03-15 05:25:00,
2013-03-15 01:30:00,27.9,12.5,29.89,West,270,1.3,5.4,52,0.00,,,0.00,WUHU216HW,2013-03-15 05:30:00,
2013-03-15 01:35:00,27.9,13.0,29.89,NW,315,1.8,5.4,53,0.00,,,0.00,WUHU216HW,2013-03-15 05:35:00,
2013-03-15 01:40:00,27.7,14.1,29.89,NW,315,4.9,5.4,56,0.00,,,0.00,WUHU216HW,2013-03-15 05:40:00,
2013-03-15 01:45:00,27.5,14.7,29.89,West,270,3.4,4.9,58,0.00,,,0.00,WUHU216HW,2013-03-15 05:45:00,
2013-03-15 01:50:00,27.4,14.5,29.89,West,270,1.3,5.4,58,0.00,,,0.00,WUHU216HW,2013-03-15 05:50:00,
2013-03-15 01:55:00,27.4,14.9,29.89,West,270,4.0,5.4,59,0.00,,,0.00,WUHU216HW,2013-03-15 05:55:00,
2013-03-15 02:00:00,27.4,15.3,29.89,West,270,2.5,4.0,60,0.00,,,0.00,WUHU216HW,2013-03-15 06:00:00,
2013-03-15 02:05:00,27.2,15.1,29.89,West,270,1.1,3.4,60,0.00,,,0.00,WUHU216HW,2013-03-15 06:05:00,
2013-03-15 02:10:00,27.2,15.5,29.89,NW,315,1.1,5.4,61,0.00,,,0.00,WUHU216HW,2013-03-15 06:10:00,
2013-03-15 02:15:00,27.2,15.5,29.89,West,270,2.5,5.8,61,0.00,,,0.00,WUHU216HW,2013-03-15 06:15:00,
2013-03-15 02:20:00,27.2,15.5,29.89,West,270,2.5,5.8,61,0.00,,,0.00,WUHU216HW,2013-03-15 06:20:00,
2013-03-15 02:25:00,27.4,15.3,29.89,NW,315,3.4,4.7,60,0.00,,,0.00,WUHU216HW,2013-03-15 06:25:00,
2013-03-15 02:30:00,27.2,15.1,29.89,NW,315,2.2,6.3,60,0.00,,,0.00,WUHU216HW,2013-03-15 06:30:00,
2013-03-15 02:35:00,27.2,15.5,29.89,NW,315,2.5,6.3,61,0.00,,,0.00,WUHU216HW,2013-03-15 06:35:00,
2013-03-15 02:40:00,27.2,15.1,29.89,WSW,248,1.8,5.6,60,0.00,,,0.00,WUHU216HW,2013-03-15 06:40:00,
2013-03-15 02:45:00,27.0,14.9,29.89,West,270,1.6,4.7,60,0.00,,,0.00,WUHU216HW,2013-03-15 06:45:00,
2013-03-15 02:50:00,27.2,15.1,29.89,South,180,0.7,5.8,60,0.00,,,0.00,WUHU216HW,2013-03-15 06:50:00,
2013-03-15 02:55:00,27.2,14.7,29.89,West,270,4.5,5.8,59,0.00,,,0.00,WUHU216HW,2013-03-15 06:55:00,
2013-03-15 03:00:00,27.2,14.7,29.89,West,270,2.5,5.1,59,0.00,,,0.00,WUHU216HW,2013-03-15 07:00:00,
2013-03-15 03:05:00,27.2,14.3,29.89,West,270,4.0,6.3,58,0.00,,,0.00,WUHU216HW,2013-03-15 07:05:00,
2013-03-15 03:10:00,27.0,14.1,29.89,SSW,203,1.1,6.3,58,0.00,,,0.00,WUHU216HW,2013-03-15 07:10:00,
2013-03-15 03:15:00,27.0,14.5,29.89,West,270,2.5,5.8,59,0.00,,,0.00,WUHU216HW,2013-03-15 07:15:00,
2013-03-15 03:20:00,26.8,14.3,29.89,West,270,1.3,3.1,59,0.00,,,0.00,WUHU216HW,2013-03-15 07:20:00,
2013-03-15 03:25:00,26.8,14.3,29.89,WSW,248,0.7,4.7,59,0.00,,,0.00,WUHU216HW,2013-03-15 07:25:00,
2013-03-15 03:30:00,26.6,14.1,29.88,West,270,6.9,6.9,59,0.00,,,0.00,WUHU216HW,2013-03-15 07:30:00,
2013-03-15 03:35:00,26.6,13.8,29.89,West,270,6.3,6.9,58,0.00,,,0.00,WUHU216HW,2013-03-15 07:35:00,
2013-03-15 03:40:00,26.6,13.3,29.88,West,270,5.4,6.9,57,0.00,,,0.00,WUHU216HW,2013-03-15 07:40:00,
2013-03-15 03:45:00,26.6,13.3,29.88,WSW,248,2.5,7.2,57,0.00,,,0.00,WUHU216HW,2013-03-15 07:45:00,
2013-03-15 03:50:00,26.6,13.8,29.89,WNW,293,3.4,7.6,58,0.00,,,0.00,WUHU216HW,2013-03-15 07:50:00,
2013-03-15 03:55:00,26.6,13.3,29.88,West,270,3.6,7.6,57,0.00,,,0.00,WUHU216HW,2013-03-15 07:55:00,
2013-03-15 04:00:00,26.5,13.6,29.89,West,270,0.4,6.9,58,0.00,,,0.00,WUHU216HW,2013-03-15 08:00:00,
2013-03-15 04:05:00,26.3,13.4,29.89,West,270,2.5,6.9,58,0.00,,,0.00,WUHU216HW,2013-03-15 08:05:00,
2013-03-15 04:10:00,26.3,13.9,29.88,WSW,248,1.8,3.6,59,0.00,,,0.00,WUHU216HW,2013-03-15 08:10:00,
2013-03-15 04:15:00,26.1,13.7,29.88,WNW,293,0.4,2.0,59,0.00,,,0.00,WUHU216HW,2013-03-15 08:15:00,
2013-03-15 04:20:00,25.9,13.5,29.88,West,270,1.6,1.8,59,0.00,,,0.00,WUHU216HW,2013-03-15 08:20:00,
2013-03-15 04:25:00,25.7,13.3,29.89,West,270,2.2,3.6,59,0.00,,,0.00,WUHU216HW,2013-03-15 08:25:00,
2013-03-15 04:30:00,25.7,13.3,29.88,WNW,293,3.1,3.6,59,0.00,,,0.00,WUHU216HW,2013-03-15 08:30:00,
2013-03-15 04:35:00,25.6,13.2,29.89,WNW,293,2.5,3.1,59,0.00,,,0.00,WUHU216HW,2013-03-15 08:35:00,
2013-03-15 04:40:00,25.6,13.2,29.88,West,270,2.9,4.3,59,0.00,,,0.00,WUHU216HW,2013-03-15 08:40:00,
2013-03-15 04:45:00,25.4,12.6,29.88,West,270,2.9,4.9,58,0.00,,,0.00,WUHU216HW,2013-03-15 08:45:00,
2013-03-15 04:50:00,25.2,12.9,29.89,WNW,293,1.3,4.9,59,0.00,,,0.00,WUHU216HW,2013-03-15 08:50:00,
2013-03-15 04:55:00,25.0,12.7,29.89,WNW,293,2.5,2.9,59,0.00,,,0.00,WUHU216HW,2013-03-15 08:55:00,
2013-03-15 05:00:00,25.0,12.7,29.89,West,270,1.3,4.0,59,0.00,,,0.00,WUHU216HW,2013-03-15 09:00:00,
2013-03-15 05:05:00,24.8,12.5,29.89,West,270,1.3,4.0,59,0.00,,,0.00,WUHU216HW,2013-03-15 09:05:00,
2013-03-15 05:10:00,24.8,12.5,29.89,WNW,293,1.1,1.8,59,0.00,,,0.00,WUHU216HW,2013-03-15 09:10:00,
2013-03-15 05:15:00,24.7,12.3,29.89,West,270,0.4,1.8,59,0.00,,,0.00,WUHU216HW,2013-03-15 09:15:00,
2013-03-15 05:20:00,24.5,12.6,29.89,SE,135,0.9,1.1,60,0.00,,,0.00,WUHU216HW,2013-03-15 09:20:00,
2013-03-15 05:25:00,24.5,12.2,29.89,WSW,248,3.1,3.1,59,0.00,,,0.00,WUHU216HW,2013-03-15 09:25:00,
2013-03-15 05:30:00,24.7,12.3,29.89,NW,315,1.6,3.4,59,0.00,,,0.00,WUHU216HW,2013-03-15 09:30:00,
2013-03-15 05:35:00,24.7,12.0,29.89,WSW,248,0.0,3.4,58,0.00,,,0.00,WUHU216HW,2013-03-15 09:35:00,
2013-03-15 05:40:00,24.5,12.2,29.89,West,270,0.7,3.4,59,0.00,,,0.00,WUHU216HW,2013-03-15 09:40:00,
2013-03-15 05:45:00,24.5,12.2,29.89,NW,315,1.6,1.6,59,0.00,,,0.00,WUHU216HW,2013-03-15 09:45:00,
2013-03-15 05:50:00,24.3,11.6,29.90,West,270,1.1,2.5,58,0.00,,,0.00,WUHU216HW,2013-03-15 09:50:00,
2013-03-15 05:55:00,24.3,11.6,29.90,West,270,2.7,2.7,58,0.00,,,0.00,WUHU216HW,2013-03-15 09:55:00,
2013-03-15 06:00:00,24.3,11.6,29.90,West,270,1.1,2.7,58,0.00,,,0.00,WUHU216HW,2013-03-15 10:00:00,
2013-03-15 06:05:00,24.3,11.6,29.90,West,270,1.1,2.5,58,0.00,,,0.00,WUHU216HW,2013-03-15 10:05:00,
2013-03-15 06:10:00,24.3,11.6,29.90,West,270,1.6,2.5,58,0.00,,,0.00,WUHU216HW,2013-03-15 10:10:00,
2013-03-15 06:15:00,24.3,11.6,29.90,WNW,293,0.9,1.8,58,0.00,,,0.00,WUHU216HW,2013-03-15 10:15:00,
2013-03-15 06:20:00,24.1,11.4,29.90,West,270,0.7,2.5,58,0.00,,,0.00,WUHU216HW,2013-03-15 10:20:00,
2013-03-15 06:25:00,24.1,11.4,29.90,West,270,0.0,2.5,58,0.00,,,0.00,WUHU216HW,2013-03-15 10:25:00,
2013-03-15 06:30:00,24.1,11.4,29.91,North,0,0.9,1.8,58,0.00,,,0.00,WUHU216HW,2013-03-15 10:30:00,
2013-03-15 06:35:00,24.1,11.4,29.90,WSW,248,0.7,1.8,58,0.00,,,0.00,WUHU216HW,2013-03-15 10:35:00,
2013-03-15 06:40:00,24.1,11.4,29.90,West,270,0.9,2.5,58,0.00,,,0.00,WUHU216HW,2013-03-15 10:40:00,
2013-03-15 06:45:00,24.1,11.4,29.90,WSW,248,0.2,2.5,58,0.00,,,0.00,WUHU216HW,2013-03-15 10:45:00,
2013-03-15 06:50:00,23.9,11.3,29.91,West,270,0.9,2.5,58,0.00,,,0.00,WUHU216HW,2013-03-15 10:50:00,
2013-03-15 06:55:00,23.9,10.9,29.91,West,270,2.9,2.9,57,0.00,,,0.00,WUHU216HW,2013-03-15 10:55:00,
2013-03-15 07:00:00,24.1,11.4,29.91,West,270,0.7,2.9,58,0.00,,,0.00,WUHU216HW,2013-03-15 11:00:00,
2013-03-15 07:05:00,24.1,11.4,29.91,WNW,293,1.1,2.2,58,0.00,,,0.00,WUHU216HW,2013-03-15 11:05:00,
2013-03-15 07:10:00,24.1,11.0,29.90,West,270,3.4,3.4,57,0.00,,,0.00,WUHU216HW,2013-03-15 11:10:00,
2013-03-15 07:15:00,24.1,11.0,29.91,West,270,0.4,3.4,57,0.00,,,0.00,WUHU216HW,2013-03-15 11:15:00,
2013-03-15 07:20:00,24.1,11.4,29.91,West,270,0.7,1.8,58,0.00,,,0.00,WUHU216HW,2013-03-15 11:20:00,
2013-03-15 07:25:00,23.9,11.3,29.90,West,270,0.0,2.2,58,0.00,,,0.00,WUHU216HW,2013-03-15 11:25:00,
2013-03-15 07:30:00,24.1,11.0,29.90,WSW,248,4.7,4.7,57,0.00,,,0.00,WUHU216HW,2013-03-15 11:30:00,
2013-03-15 07:35:00,24.3,11.6,29.90,West,270,0.2,4.7,58,0.00,,,0.00,WUHU216HW,2013-03-15 11:35:00,
2013-03-15 07:40:00,24.3,11.6,29.90,SSW,203,0.7,1.8,58,0.00,,,0.00,WUHU216HW,2013-03-15 11:40:00,
2013-03-15 07:45:00,24.5,11.8,29.90,WNW,293,2.2,4.9,58,0.00,,,0.00,WUHU216HW,2013-03-15 11:45:00,
2013-03-15 07:50:00,24.7,12.0,29.90,WNW,293,2.5,4.9,58,0.00,,,0.00,WUHU216HW,2013-03-15 11:50:00,
2013-03-15 07:55:00,24.8,12.2,29.90,West,270,0.4,2.9,58,0.00,,,0.00,WUHU216HW,2013-03-15 11:55:00,
2013-03-15 08:00:00,24.8,11.7,29.91,West,270,1.8,2.2,57,0.00,,,0.00,WUHU216HW,2013-03-15 12:00:00,
2013-03-15 08:05:00,24.8,11.7,29.90,West,270,1.6,5.8,57,0.00,,,0.00,WUHU216HW,2013-03-15 12:05:00,
2013-03-15 08:10:00,24.8,11.4,29.91,West,270,2.5,5.8,56,0.00,,,0.00,WUHU216HW,2013-03-15 12:10:00,
2013-03-15 08:15:00,24.8,11.4,29.91,WSW,248,2.7,3.4,56,0.00,,,0.00,WUHU216HW,2013-03-15 12:15:00,
2013-03-15 08:20:00,25.0,11.4,29.91,West,270,3.4,3.4,56,0.00,,,0.00,WUHU216HW,2013-03-15 12:20:00,
2013-03-15 08:25:00,25.2,11.6,29.91,West,270,4.5,4.5,56,0.00,,,0.00,WUHU216HW,2013-03-15 12:25:00,
2013-03-15 08:30:00,25.4,12.3,29.91,WSW,248,0.4,4.5,57,0.00,,,0.00,WUHU216HW,2013-03-15 12:30:00,
2013-03-15 08:35:00,25.6,12.0,29.91,WSW,248,1.1,4.0,56,0.00,,,0.00,WUHU216HW,2013-03-15 12:35:00,
2013-03-15 08:40:00,25.6,11.5,29.91,West,270,2.9,4.0,55,0.00,,,0.00,WUHU216HW,2013-03-15 12:40:00,
2013-03-15 08:45:00,26.1,12.9,29.91,West,270,0.4,2.9,57,0.00,,,0.00,WUHU216HW,2013-03-15 12:45:00,
2013-03-15 08:50:00,26.5,12.3,29.90,West,270,1.1,1.8,55,0.00,,,0.00,WUHU216HW,2013-03-15 12:50:00,
2013-03-15 08:55:00,26.5,12.0,29.90,West,270,2.9,4.0,54,0.00,,,0.00,WUHU216HW,2013-03-15 12:55:00,
2013-03-15 09:00:00,26.5,12.3,29.90,West,270,2.0,4.0,55,0.00,,,0.00,WUHU216HW,2013-03-15 13:00:00,
2013-03-15 09:05:00,26.6,12.1,29.90,West,270,2.2,2.7,54,0.00,,,0.00,WUHU216HW,2013-03-15 13:05:00,
2013-03-15 09:10:00,26.8,12.7,29.90,West,270,2.5,2.7,55,0.00,,,0.00,WUHU216HW,2013-03-15 13:10:00,
2013-03-15 09:15:00,27.2,13.1,29.90,WSW,248,2.5,2.5,55,0.00,,,0.00,WUHU216HW,2013-03-15 13:15:00,
2013-03-15 09:20:00,27.5,13.0,29.90,West,270,1.8,2.5,54,0.00,,,0.00,WUHU216HW,2013-03-15 13:20:00,
2013-03-15 09:25:00,27.7,13.1,29.90,West,270,1.3,1.8,54,0.00,,,0.00,WUHU216HW,2013-03-15 13:25:00,
2013-03-15 09:30:00,27.9,13.0,29.90,West,270,3.8,3.8,53,0.00,,,0.00,WUHU216HW,2013-03-15 13:30:00,
2013-03-15 09:35:00,27.7,12.8,29.90,West,270,0.7,3.8,53,0.00,,,0.00,WUHU216HW,2013-03-15 13:35:00,
2013-03-15 09:40:00,28.3,12.9,29.90,West,270,1.8,2.9,52,0.00,,,0.00,WUHU216HW,2013-03-15 13:40:00,
2013-03-15 09:45:00,28.4,13.1,29.90,South,180,0.7,1.8,52,0.00,,,0.00,WUHU216HW,2013-03-15 13:45:00,
2013-03-15 09:50:00,29.3,13.9,29.90,WSW,248,2.0,2.0,52,0.00,,,0.00,WUHU216HW,2013-03-15 13:50:00,
2013-03-15 09:55:00,29.9,14.0,29.89,SSE,158,0.9,2.5,51,0.00,,,0.00,WUHU216HW,2013-03-15 13:55:00,
2013-03-15 10:00:00,30.6,14.2,29.90,West,270,1.3,4.7,50,0.00,,,0.00,WUHU216HW,2013-03-15 14:00:00,
2013-03-15 10:05:00,32.0,14.9,29.89,West,270,1.1,4.7,49,0.00,,,0.00,WUHU216HW,2013-03-15 14:05:00,
2013-03-15 10:10:00,32.8,14.1,29.89,SSE,158,0.9,4.7,46,0.00,,,0.00,WUHU216HW,2013-03-15 14:10:00,
2013-03-15 10:15:00,33.3,14.1,29.89,SSE,158,2.5,4.7,45,0.00,,,0.00,WUHU216HW,2013-03-15 14:15:00,
2013-03-15 10:20:00,33.8,14.6,29.89,West,270,2.2,3.6,45,0.00,,,0.00,WUHU216HW,2013-03-15 14:20:00,
2013-03-15 10:25:00,34.2,14.4,29.89,West,270,1.3,6.9,44,0.00,,,0.00,WUHU216HW,2013-03-15 14:25:00,
2013-03-15 10:30:00,35.3,15.4,29.88,SSW,203,0.7,6.9,44,0.00,,,0.00,WUHU216HW,2013-03-15 14:30:00,
2013-03-15 10:35:00,35.8,14.4,29.87,ESE,113,1.6,2.9,41,0.00,,,0.00,WUHU216HW,2013-03-15 14:35:00,
2013-03-15 10:40:00,36.4,16.4,29.87,SSW,203,0.4,4.0,44,0.00,,,0.00,WUHU216HW,2013-03-15 14:40:00,
2013-03-15 10:45:00,38.2,15.9,29.87,NE,45,0.9,4.0,40,0.00,,,0.00,WUHU216HW,2013-03-15 14:45:00,
2013-03-15 10:50:00,37.8,15.7,29.87,SSE,158,1.1,2.5,40,0.00,,,0.00,WUHU216HW,2013-03-15 14:50:00,
2013-03-15 10:56:00,38.7,17.5,29.87,North,0,2.9,3.4,42,0.00,,,0.00,WUHU216HW,2013-03-15 14:56:00,
2013-03-15 11:01:00,39.1,16.1,29.87,West,270,4.3,4.3,39,0.00,,,0.00,WUHU216HW,2013-03-15 15:01:00,
2013-03-15 11:06:00,39.2,15.7,29.87,SSE,158,0.9,4.3,38,0.00,,,0.00,WUHU216HW,2013-03-15 15:06:00,
2013-03-15 11:11:00,38.2,15.3,29.87,SSE,158,1.6,3.1,39,0.00,,,0.00,WUHU216HW,2013-03-15 15:11:00,
2013-03-15 11:16:00,35.3,13.3,29.87,SSE,158,1.1,3.1,40,0.00,,,0.00,WUHU216HW,2013-03-15 15:16:00,
2013-03-15 11:21:00,33.8,13.6,29.87,South,180,3.8,3.8,43,0.00,,,0.00,WUHU216HW,2013-03-15 15:21:00,
2013-03-15 11:26:00,33.5,14.8,29.87,SE,135,0.9,3.8,46,0.00,,,0.00,WUHU216HW,2013-03-15 15:26:00,
2013-03-15 11:31:00,33.5,14.8,29.86,SW,225,0.4,2.2,46,0.00,,,0.00,WUHU216HW,2013-03-15 15:31:00,
2013-03-15 11:36:00,34.0,14.2,29.86,SSE,158,0.2,2.2,44,0.00,,,0.00,WUHU216HW,2013-03-15 15:36:00,
2013-03-15 11:41:00,36.2,16.7,29.85,West,270,1.1,1.8,45,0.00,,,0.00,WUHU216HW,2013-03-15 15:41:00,
2013-03-15 11:46:00,39.1,16.1,29.85,West,270,1.3,2.2,39,0.00,,,0.00,WUHU216HW,2013-03-15 15:46:00,
2013-03-15 11:51:00,40.5,17.4,29.85,West,270,1.1,3.6,39,0.00,,,0.00,WUHU216HW,2013-03-15 15:51:00,
2013-03-15 11:56:00,40.5,15.5,29.84,WNW,293,1.8,4.0,36,0.00,,,0.00,WUHU216HW,2013-03-15 15:56:00,
2013-03-15 12:01:00,41.2,15.5,29.84,SSE,158,0.9,4.0,35,0.00,,,0.00,WUHU216HW,2013-03-15 16:01:00,
2013-03-15 12:06:00,40.3,15.3,29.84,SE,135,0.4,2.5,36,0.00,,,0.00,WUHU216HW,2013-03-15 16:06:00,
2013-03-15 12:11:00,39.8,14.9,29.84,SE,135,0.4,2.5,36,0.00,,,0.00,WUHU216HW,2013-03-15 16:11:00,
2013-03-15 12:16:00,39.2,14.9,29.83,SE,135,1.1,1.8,37,0.00,,,0.00,WUHU216HW,2013-03-15 16:16:00,
2013-03-15 12:21:00,40.0,15.7,29.83,SSE,158,1.3,1.8,37,0.00,,,0.00,WUHU216HW,2013-03-15 16:21:00,
2013-03-15 12:26:00,39.6,14.7,29.82,South,180,1.6,4.0,36,0.00,,,0.00,WUHU216HW,2013-03-15 16:26:00,
2013-03-15 12:31:00,39.8,15.5,29.82,SE,135,1.6,4.0,37,0.00,,,0.00,WUHU216HW,2013-03-15 16:31:00,
2013-03-15 12:36:00,40.7,15.7,29.81,NE,45,0.2,2.2,36,0.00,,,0.00,WUHU216HW,2013-03-15 16:36:00,
2013-03-15 12:41:00,40.7,14.9,29.81,SE,135,1.8,2.2,35,0.00,,,0.00,WUHU216HW,2013-03-15 16:41:00,
2013-03-15 12:46:00,41.2,16.7,29.80,West,270,5.1,5.1,37,0.00,,,0.00,WUHU216HW,2013-03-15 16:46:00,
2013-03-15 12:51:00,42.5,17.2,29.79,SSE,158,0.9,5.1,36,0.00,,,0.00,WUHU216HW,2013-03-15 16:51:00,
2013-03-15 12:56:00,42.1,15.6,29.79,SSE,158,0.4,4.0,34,0.00,,,0.00,WUHU216HW,2013-03-15 16:56:00,
2013-03-15 13:01:00,43.0,17.0,29.79,SSE,158,1.3,4.0,35,0.00,,,0.00,WUHU216HW,2013-03-15 17:01:00,
2013-03-15 13:06:00,43.4,18.0,29.79,NNW,338,1.8,3.4,36,0.00,,,0.00,WUHU216HW,2013-03-15 17:06:00,
2013-03-15 13:11:00,43.9,17.8,29.79,West,270,3.1,3.4,35,0.00,,,0.00,WUHU216HW,2013-03-15 17:11:00,
2013-03-15 13:16:00,44.3,18.8,29.78,South,180,1.1,3.1,36,0.00,,,0.00,WUHU216HW,2013-03-15 17:16:00,
2013-03-15 13:21:00,43.0,16.3,29.78,West,270,2.5,2.5,34,0.00,,,0.00,WUHU216HW,2013-03-15 17:21:00,
2013-03-15 13:26:00,42.1,15.6,29.78,SSE,158,4.5,4.5,34,0.00,,,0.00,WUHU216HW,2013-03-15 17:26:00,
2013-03-15 13:31:00,42.7,16.0,29.77,SSE,158,1.8,4.5,34,0.00,,,0.00,WUHU216HW,2013-03-15 17:31:00,
2013-03-15 13:36:00,42.1,16.2,29.77,ESE,113,0.7,2.5,35,0.00,,,0.00,WUHU216HW,2013-03-15 17:36:00,
2013-03-15 13:41:00,44.1,18.6,29.76,SSE,158,0.4,1.8,36,0.00,,,0.00,WUHU216HW,2013-03-15 17:41:00,
2013-03-15 13:47:00,44.3,18.1,29.76,SSE,158,3.1,3.4,35,0.00,,,0.00,WUHU216HW,2013-03-15 17:47:00,
2013-03-15 13:52:00,43.9,17.1,29.76,SSE,158,2.5,3.4,34,0.00,,,0.00,WUHU216HW,2013-03-15 17:52:00,
2013-03-15 13:57:00,44.5,19.0,29.76,ENE,68,2.2,2.9,36,0.00,,,0.00,WUHU216HW,2013-03-15 17:57:00,
2013-03-15 14:02:00,44.6,19.8,29.75,ENE,68,1.3,2.9,37,0.00,,,0.00,WUHU216HW,2013-03-15 18:02:00,
2013-03-15 14:07:00,44.6,19.8,29.75,SSE,158,2.5,3.4,37,0.00,,,0.00,WUHU216HW,2013-03-15 18:07:00,
2013-03-15 14:12:00,44.3,18.8,29.74,SSE,158,2.7,3.4,36,0.00,,,0.00,WUHU216HW,2013-03-15 18:12:00,
2013-03-15 14:17:00,44.1,18.6,29.74,SE,135,2.0,3.4,36,0.00,,,0.00,WUHU216HW,2013-03-15 18:17:00,
2013-03-15 14:22:00,44.3,18.1,29.74,SSE,158,1.6,4.7,35,0.00,,,0.00,WUHU216HW,2013-03-15 18:22:00,
2013-03-15 14:27:00,43.9,18.5,29.74,SE,135,0.4,4.7,36,0.00,,,0.00,WUHU216HW,2013-03-15 18:27:00,
2013-03-15 14:32:00,42.8,18.2,29.73,South,180,1.6,4.0,37,0.00,,,0.00,WUHU216HW,2013-03-15 18:32:00,
2013-03-15 14:37:00,42.1,18.2,29.72,SSE,158,1.8,4.0,38,0.00,,,0.00,WUHU216HW,2013-03-15 18:37:00,
2013-03-15 14:42:00,43.2,20.5,29.72,SSE,158,1.3,7.6,40,0.00,,,0.00,WUHU216HW,2013-03-15 18:42:00,
2013-03-15 14:47:00,43.6,20.2,29.72,South,180,1.8,7.6,39,0.00,,,0.00,WUHU216HW,2013-03-15 18:47:00,
2013-03-15 14:52:00,43.9,21.2,29.71,SSE,158,2.2,5.1,40,0.00,,,0.00,WUHU216HW,2013-03-15 18:52:00,
2013-03-15 14:57:00,43.6,19.4,29.71,SSE,158,2.9,4.3,38,0.00,,,0.00,WUHU216HW,2013-03-15 18:57:00,
2013-03-15 15:02:00,42.8,20.7,29.71,ENE,68,4.0,4.0,41,0.00,,,0.00,WUHU216HW,2013-03-15 19:02:00,
2013-03-15 15:07:00,42.3,20.3,29.71,SE,135,0.9,4.0,41,0.00,,,0.00,WUHU216HW,2013-03-15 19:07:00,
2013-03-15 15:12:00,42.1,20.6,29.71,SE,135,2.2,2.9,42,0.00,,,0.00,WUHU216HW,2013-03-15 19:12:00,
2013-03-15 15:17:00,41.4,21.0,29.71,ESE,113,1.3,3.1,44,0.00,,,0.00,WUHU216HW,2013-03-15 19:17:00,
2013-03-15 15:22:00,41.4,21.5,29.71,SSE,158,0.9,4.3,45,0.00,,,0.00,WUHU216HW,2013-03-15 19:22:00,
2013-03-15 15:27:00,41.4,21.0,29.70,ESE,113,1.3,4.3,44,0.00,,,0.00,WUHU216HW,2013-03-15 19:27:00,
2013-03-15 15:32:00,41.4,21.0,29.70,WSW,248,1.3,4.7,44,0.00,,,0.00,WUHU216HW,2013-03-15 19:32:00,
2013-03-15 15:37:00,41.2,21.9,29.70,SE,135,1.1,4.7,46,0.00,,,0.00,WUHU216HW,2013-03-15 19:37:00,
2013-03-15 15:42:00,40.9,22.6,29.70,NE,45,0.9,4.3,48,0.00,,,0.00,WUHU216HW,2013-03-15 19:42:00,
2013-03-15 15:47:00,40.9,23.0,29.70,WSW,248,0.9,4.3,49,0.00,,,0.00,WUHU216HW,2013-03-15 19:47:00,
2013-03-15 15:52:00,40.9,23.6,29.70,ESE,113,2.5,8.5,50,0.00,,,0.00,WUHU216HW,2013-03-15 19:52:00,
2013-03-15 15:57:00,40.7,23.9,29.70,West,270,3.4,8.5,51,0.00,,,0.00,WUHU216HW,2013-03-15 19:57:00,
2013-03-15 16:02:00,40.3,24.0,29.70,ESE,113,4.0,6.3,52,0.00,,,0.00,WUHU216HW,2013-03-15 20:02:00,
2013-03-15 16:07:00,40.0,24.6,29.70,SSE,158,0.4,4.0,54,0.00,,,0.00,WUHU216HW,2013-03-15 20:07:00,
2013-03-15 16:12:00,39.4,24.9,29.70,SSE,158,1.8,3.6,56,0.00,,,0.00,WUHU216HW,2013-03-15 20:12:00,
2013-03-15 16:18:00,39.2,25.6,29.71,West,270,2.7,2.7,58,0.00,,,0.00,WUHU216HW,2013-03-15 20:18:00,
2013-03-15 16:23:00,38.9,25.3,29.70,South,180,3.1,3.1,58,0.00,,,0.00,WUHU216HW,2013-03-15 20:23:00,
2013-03-15 16:28:00,38.9,25.8,29.70,SSE,158,1.8,3.1,59,0.00,,,0.00,WUHU216HW,2013-03-15 20:28:00,
2013-03-15 16:33:00,38.9,25.8,29.70,WSW,248,2.2,3.1,59,0.00,,,0.00,WUHU216HW,2013-03-15 20:33:00,
2013-03-15 16:38:00,38.9,25.8,29.70,SE,135,1.3,2.2,59,0.00,,,0.00,WUHU216HW,2013-03-15 20:38:00,
2013-03-15 16:43:00,38.9,25.3,29.70,West,270,7.8,7.8,58,0.00,,,0.00,WUHU216HW,2013-03-15 20:43:00,
2013-03-15 16:48:00,38.9,26.1,29.70,SE,135,2.7,7.8,60,0.00,,,0.00,WUHU216HW,2013-03-15 20:48:00,
2013-03-15 16:53:00,38.7,26.4,29.70,SSE,158,0.4,3.4,61,0.00,,,0.00,WUHU216HW,2013-03-15 20:53:00,
2013-03-15 16:58:00,38.5,26.6,29.70,SW,225,1.6,3.4,62,0.00,,,0.00,WUHU216HW,2013-03-15 20:58:00,
2013-03-15 17:03:00,38.0,26.5,29.71,SSE,158,1.8,4.0,63,0.00,,,0.00,WUHU216HW,2013-03-15 21:03:00,
2013-03-15 17:08:00,37.8,26.6,29.70,SSW,203,0.4,4.0,64,0.00,,,0.00,WUHU216HW,2013-03-15 21:08:00,
2013-03-15 17:13:00,37.8,27.1,29.70,SSW,203,0.2,2.5,65,0.00,,,0.00,WUHU216HW,2013-03-15 21:13:00,
2013-03-15 17:18:00,37.8,27.1,29.70,SE,135,0.9,2.2,65,0.00,,,0.00,WUHU216HW,2013-03-15 21:18:00,
2013-03-15 17:23:00,37.8,27.1,29.70,SE,135,3.4,4.0,65,0.00,,,0.00,WUHU216HW,2013-03-15 21:23:00,
2013-03-15 17:28:00,37.6,27.3,29.70,SSE,158,1.1,3.4,66,0.00,,,0.00,WUHU216HW,2013-03-15 21:28:00,
2013-03-15 17:33:00,37.4,27.1,29.70,East,90,1.1,3.1,66,0.00,,,0.00,WUHU216HW,2013-03-15 21:33:00,
2013-03-15 17:38:00,37.3,26.9,29.70,South,180,1.1,3.1,66,0.00,,,0.00,WUHU216HW,2013-03-15 21:38:00,
2013-03-15 17:43:00,37.4,27.1,29.70,SE,135,1.1,2.0,66,0.00,,,0.00,WUHU216HW,2013-03-15 21:43:00,
2013-03-15 17:48:00,37.6,27.3,29.70,SE,135,0.4,2.0,66,0.00,,,0.00,WUHU216HW,2013-03-15 21:48:00,
2013-03-15 17:53:00,37.8,26.6,29.70,SSW,203,0.2,2.2,64,0.00,,,0.00,WUHU216HW,2013-03-15 21:53:00,
2013-03-15 17:58:00,37.8,26.6,29.70,SSE,158,0.7,2.2,64,0.00,,,0.00,WUHU216HW,2013-03-15 21:58:00,
2013-03-15 18:03:00,37.8,26.6,29.70,SSW,203,0.4,1.8,64,0.00,,,0.00,WUHU216HW,2013-03-15 22:03:00,
2013-03-15 18:08:00,37.8,26.3,29.70,WSW,248,2.5,2.5,63,0.00,,,0.00,WUHU216HW,2013-03-15 22:08:00,
2013-03-15 18:13:00,37.8,26.3,29.70,SW,225,0.4,3.4,63,0.00,,,0.00,WUHU216HW,2013-03-15 22:13:00,
2013-03-15 18:18:00,37.6,26.6,29.70,SE,135,1.8,3.4,64,0.00,,,0.00,WUHU216HW,2013-03-15 22:18:00,
2013-03-15 18:23:00,37.6,26.9,29.70,SE,135,0.4,2.2,65,0.00,,,0.00,WUHU216HW,2013-03-15 22:23:00,
2013-03-15 18:28:00,37.4,26.7,29.70,SW,225,0.7,1.8,65,0.00,,,0.00,WUHU216HW,2013-03-15 22:28:00,
2013-03-15 18:33:00,37.4,27.1,29.71,WNW,293,4.0,4.0,66,0.00,,,0.00,WUHU216HW,2013-03-15 22:33:00,
2013-03-15 18:38:00,37.1,27.2,29.71,SSE,158,1.1,5.1,67,0.00,,,0.00,WUHU216HW,2013-03-15 22:38:00,
2013-03-15 18:43:00,37.1,27.2,29.71,West,270,2.9,5.1,67,0.00,,,0.00,WUHU216HW,2013-03-15 22:43:00,
2013-03-15 18:48:00,37.1,27.6,29.71,WSW,248,1.1,2.9,68,0.00,,,0.00,WUHU216HW,2013-03-15 22:48:00,
2013-03-15 18:53:00,36.7,27.9,29.71,SSW,203,0.9,5.1,70,0.00,,,0.00,WUHU216HW,2013-03-15 22:53:00,
2013-03-15 18:58:00,36.5,28.1,29.71,SSE,158,1.8,5.1,71,0.00,,,0.00,WUHU216HW,2013-03-15 22:58:00,
2013-03-15 19:03:00,36.4,28.2,29.71,ESE,113,1.1,4.0,72,0.00,,,0.00,WUHU216HW,2013-03-15 23:03:00,
2013-03-15 19:08:00,36.2,28.4,29.71,West,270,1.3,2.2,73,0.00,,,0.00,WUHU216HW,2013-03-15 23:08:00,
2013-03-15 19:13:00,36.0,28.2,29.71,SE,135,1.1,2.2,73,0.00,,,0.00,WUHU216HW,2013-03-15 23:13:00,
2013-03-15 19:18:00,35.8,28.6,29.71,SSW,203,0.0,1.8,75,0.00,,,0.00,WUHU216HW,2013-03-15 23:18:00,
2013-03-15 19:23:00,35.6,28.8,29.71,South,180,0.0,1.8,76,0.00,,,0.00,WUHU216HW,2013-03-15 23:23:00,
2013-03-15 19:28:00,35.6,28.8,29.71,South,180,0.0,1.8,76,0.00,,,0.00,WUHU216HW,2013-03-15 23:28:00,
2013-03-15 19:33:00,35.5,28.9,29.71,South,180,0.4,0.7,77,0.00,,,0.00,WUHU216HW,2013-03-15 23:33:00,
2013-03-15 19:38:00,35.3,29.1,29.71,SSE,158,0.9,0.9,78,0.00,,,0.00,WUHU216HW,2013-03-15 23:38:00,
2013-03-15 19:43:00,35.3,28.7,29.71,SSE,158,0.0,0.9,77,0.00,,,0.00,WUHU216HW,2013-03-15 23:43:00,
2013-03-15 19:48:00,34.9,29.0,29.71,SSE,158,0.0,1.1,79,0.00,,,0.00,WUHU216HW,2013-03-15 23:48:00,
2013-03-15 19:53:00,34.9,28.7,29.71,SSE,158,0.0,1.1,78,0.00,,,0.00,WUHU216HW,2013-03-15 23:53:00,
2013-03-15 19:58:00,34.7,28.8,29.70,SSE,158,0.2,0.4,79,0.00,,,0.00,WUHU216HW,2013-03-15 23:58:00,
2013-03-15 20:03:00,34.6,28.6,29.70,SSE,158,0.9,0.9,79,0.00,,,0.00,WUHU216HW,2013-03-16 00:03:00,
2013-03-15 20:08:00,34.6,28.6,29.70,SSE,158,0.4,1.1,79,0.00,,,0.00,WUHU216HW,2013-03-16 00:08:00,
2013-03-15 20:13:00,34.4,28.8,29.70,South,180,0.9,1.6,80,0.00,,,0.00,WUHU216HW,2013-03-16 00:13:00,
2013-03-15 20:18:00,34.4,28.4,29.70,SSE,158,0.4,1.6,79,0.00,,,0.00,WUHU216HW,2013-03-16 00:18:00,
2013-03-15 20:23:00,34.4,28.2,29.70,WNW,293,0.9,0.9,78,0.00,,,0.00,WUHU216HW,2013-03-16 00:23:00,
2013-03-15 20:28:00,34.4,28.2,29.70,SE,135,0.9,0.9,78,0.00,,,0.00,WUHU216HW,2013-03-16 00:28:00,
2013-03-15 20:33:00,34.6,28.4,29.70,South,180,0.0,1.3,78,0.00,,,0.00,WUHU216HW,2013-03-16 00:33:00,
2013-03-15 20:38:00,34.6,28.4,29.71,SSE,158,0.2,1.3,78,0.00,,,0.00,WUHU216HW,2013-03-16 00:38:00,
2013-03-15 20:43:00,34.6,27.7,29.71,SSW,203,0.7,0.7,76,0.00,,,0.00,WUHU216HW,2013-03-16 00:43:00,
2013-03-15 20:48:00,34.2,27.4,29.71,West,270,0.0,1.1,76,0.00,,,0.00,WUHU216HW,2013-03-16 00:48:00,
2013-03-15 20:53:00,34.2,27.6,29.71,SE,135,0.4,1.1,77,0.00,,,0.00,WUHU216HW,2013-03-16 00:53:00,
2013-03-15 20:58:00,34.4,28.2,29.71,West,270,0.0,1.1,78,0.00,,,0.00,WUHU216HW,2013-03-16 00:58:00,
2013-03-15 21:03:00,34.2,27.6,29.71,West,270,0.9,1.1,77,0.00,,,0.00,WUHU216HW,2013-03-16 01:03:00,
2013-03-15 21:08:00,34.2,28.0,29.71,SSE,158,0.0,0.9,78,0.00,,,0.00,WUHU216HW,2013-03-16 01:08:00,
2013-03-15 21:13:00,34.4,27.8,29.71,SSW,203,0.7,1.3,77,0.00,,,0.00,WUHU216HW,2013-03-16 01:13:00,
2013-03-15 21:18:00,34.6,28.4,29.71,WSW,248,0.4,2.5,78,0.00,,,0.00,WUHU216HW,2013-03-16 01:18:00,
2013-03-15 21:23:00,34.7,28.2,29.71,SSE,158,0.9,2.5,77,0.00,,,0.00,WUHU216HW,2013-03-16 01:23:00,
2013-03-15 21:28:00,34.9,28.1,29.71,SSW,203,0.7,1.1,76,0.00,,,0.00,WUHU216HW,2013-03-16 01:28:00,
2013-03-15 21:33:00,35.1,28.3,29.71,ESE,113,0.9,2.7,76,0.00,,,0.00,WUHU216HW,2013-03-16 01:33:00,
2013-03-15 21:38:00,35.3,28.5,29.71,SSE,158,1.3,2.7,76,0.00,,,0.00,WUHU216HW,2013-03-16 01:38:00,
2013-03-15 21:43:00,35.3,28.1,29.71,SSE,158,1.1,2.2,75,0.00,,,0.00,WUHU216HW,2013-03-16 01:43:00,
2013-03-15 21:48:00,35.5,28.3,29.71,SSE,158,1.3,2.2,75,0.00,,,0.00,WUHU216HW,2013-03-16 01:48:00,
2013-03-15 21:53:00,35.5,28.3,29.71,West,270,0.9,1.6,75,0.00,,,0.00,WUHU216HW,2013-03-16 01:53:00,
2013-03-15 21:58:00,35.3,28.1,29.71,WSW,248,1.1,3.4,75,0.00,,,0.00,WUHU216HW,2013-03-16 01:58:00,
2013-03-15 22:03:00,35.3,27.7,29.71,West,270,1.6,3.4,74,0.00,,,0.00,WUHU216HW,2013-03-16 02:03:00,
2013-03-15 22:08:00,35.1,27.9,29.71,SSE,158,1.1,2.5,75,0.00,,,0.00,WUHU216HW,2013-03-16 02:08:00,
2013-03-15 22:13:00,35.1,27.9,29.71,West,270,1.1,2.5,75,0.00,,,0.00,WUHU216HW,2013-03-16 02:13:00,
2013-03-15 22:18:00,35.1,27.5,29.71,West,270,4.3,4.3,74,0.00,,,0.00,WUHU216HW,2013-03-16 02:18:00,
2013-03-15 22:23:00,35.1,27.5,29.71,West,270,1.8,4.3,74,0.00,,,0.00,WUHU216HW,2013-03-16 02:23:00,
2013-03-15 22:28:00,35.1,27.3,29.71,ESE,113,0.9,3.8,73,0.00,,,0.00,WUHU216HW,2013-03-16 02:28:00,
2013-03-15 22:33:00,35.1,27.3,29.71,NNW,338,1.6,2.7,73,0.00,,,0.00,WUHU216HW,2013-03-16 02:33:00,
2013-03-15 22:38:00,35.3,27.5,29.71,SE,135,2.0,5.4,73,0.00,,,0.00,WUHU216HW,2013-03-16 02:38:00,
2013-03-15 22:43:00,35.3,27.5,29.71,SE,135,1.1,5.4,73,0.00,,,0.00,WUHU216HW,2013-03-16 02:43:00,
2013-03-15 22:48:00,35.1,27.3,29.71,NW,315,0.9,1.8,73,0.00,,,0.00,WUHU216HW,2013-03-16 02:48:00,
2013-03-15 22:53:00,35.1,27.3,29.71,SSE,158,2.0,2.0,73,0.00,,,0.00,WUHU216HW,2013-03-16 02:53:00,
2013-03-15 22:59:00,35.3,27.1,29.71,SW,225,0.7,2.0,72,0.00,,,0.00,WUHU216HW,2013-03-16 02:59:00,
2013-03-15 23:04:00,35.1,26.9,29.71,South,180,1.8,1.8,72,0.00,,,0.00,WUHU216HW,2013-03-16 03:04:00,
2013-03-15 23:09:00,34.9,26.7,29.71,SSW,203,0.2,1.8,72,0.00,,,0.00,WUHU216HW,2013-03-16 03:09:00,
2013-03-15 23:14:00,34.7,26.3,29.72,South,180,0.0,0.7,71,0.00,,,0.00,WUHU216HW,2013-03-16 03:14:00,
2013-03-15 23:19:00,34.6,26.1,29.72,NW,315,0.0,0.7,71,0.00,,,0.00,WUHU216HW,2013-03-16 03:19:00,
2013-03-15 23:24:00,34.6,26.1,29.72,SW,225,0.2,0.7,71,0.00,,,0.00,WUHU216HW,2013-03-16 03:24:00,
2013-03-15 23:29:00,34.6,26.1,29.72,SW,225,0.7,0.7,71,0.00,,,0.00,WUHU216HW,2013-03-16 03:29:00,
2013-03-15 23:34:00,34.4,25.9,29.72,WSW,248,1.1,1.1,71,0.00,,,0.00,WUHU216HW,2013-03-16 03:34:00,
2013-03-15 23:39:00,34.2,25.4,29.72,WSW,248,0.7,1.1,70,0.00,,,0.00,WUHU216HW,2013-03-16 03:39:00,
2013-03-15 23:44:00,34.4,25.6,29.73,West,270,0.4,3.4,70,0.00,,,0.00,WUHU216HW,2013-03-16 03:44:00,
2013-03-15 23:49:00,34.2,25.4,29.73,West,270,2.2,3.4,70,0.00,,,0.00,WUHU216HW,2013-03-16 03:49:00,
2013-03-15 23:54:00,34.6,25.4,29.73,West,270,0.4,2.9,69,0.00,,,0.00,WUHU216HW,2013-03-16 03:54:00,
2013-03-15 23:59:00,34.7,25.2,29.73,West,270,1.6,3.6,68,0.00,,,0.00,WUHU216HW,2013-03-16 03:59:00,